Weather History for KRSW - January, 2013

Change the Weather History Date:

Thursday, January 17, 2013

  Actual Average (KFMY) Record (KFMY)
Temperature  
Mean Temperature 70 °F 64 °F  
Max Temperature 80 °F 75 °F 87 °F (1943)
Min Temperature 60 °F 54 °F 35 °F (1893)
Degree Days  
Heating Degree Days 0 4  
Month to date heating degree days 68  
Since 1 July heating degree days 161  
Cooling Degree Days 6 3  
Month to date cooling degree days 50  
Year to date cooling degree days 50  
Growing Degree Days 20 (Base 50)    
Moisture  
Dew Point 60 °F    
Average Humidity 74    
Maximum Humidity 93    
Minimum Humidity 60    
Precipitation  
Precipitation 0.00 in 0.06 in 1.17 in (1941)
Month to date precipitation 1.06  
Year to date precipitation 1.06  
Sea Level Pressure  
Sea Level Pressure 30.06 in    
Wind  
Wind Speed 7 mph (WNW)    
Max Wind Speed 20 mph    
Max Gust Speed 26 mph    
Visibility 10 miles    
Events      
T = Trace of Precipitation, MM = Missing Value Source: NWS Daily Summary

Daily Weather History Graph

Daily Weather History Graph

Search for Another Location

Airport or City:

Trip Planner

Search our weather history database for the weather conditions in past years. The results will help you decide how hot, cold, wet, or windy it might be!

Date:

Astronomy

Jan. 17, 2013 Rise Set
Actual Time 7:16 AM EST 5:58 PM EST
Civil Twilight 6:51 AM EST 6:23 PM EST
Nautical Twilight 6:23 AM EST 6:51 PM EST
Astronomical Twilight 5:55 AM EST 7:19 PM EST
Moon 11:03 AM EST (1/17) No Moon Set
Length of Visible Light 11h 31m
Length of Day
10h 41m
Waxing Crescent, 37% of the Moon is Illuminated
Jan 17
Waxing Crescent
Jan 18
First Quarter
Jan 26
Full
Feb 3
Last Quarter
Feb 10
New

Hourly Weather History & Observations

Time (EST) Temp. Heat Index Dew Point Humidity Pressure Visibility Wind Dir Wind Speed Gust Speed Precip Events Conditions
12:53 AM 66.9 °F - 63.0 °F 87% 30.04 in 10.0 mi ESE 3.5 mph - N/A   Clear
1:53 AM 66.0 °F - 63.0 °F 90% 30.04 in 10.0 mi NNW 3.5 mph - N/A   Clear
2:53 AM 64.0 °F - 61.0 °F 90% 30.03 in 10.0 mi ESE 3.5 mph - N/A   Clear
3:53 AM 64.9 °F - 63.0 °F 93% 30.03 in 10.0 mi Calm Calm - N/A   Mostly Cloudy
4:53 AM 64.0 °F - 62.1 °F 93% 30.02 in 10.0 mi Calm Calm - N/A   Mostly Cloudy
5:53 AM 64.0 °F - 62.1 °F 93% 30.04 in 10.0 mi Calm Calm - N/A   Mostly Cloudy
6:53 AM 64.0 °F - 62.1 °F 93% 30.05 in 10.0 mi Calm Calm - N/A   Clear
7:53 AM 64.0 °F - 62.1 °F 93% 30.06 in 10.0 mi East 3.5 mph - N/A   Clear
8:53 AM 69.1 °F - 66.9 °F 93% 30.07 in 10.0 mi SSE 6.9 mph - N/A   Clear
9:53 AM 75.0 °F - 69.1 °F 82% 30.08 in 10.0 mi SSW 6.9 mph - N/A   Clear
10:53 AM 79.0 °F - 66.9 °F 66% 30.07 in 10.0 mi SW 13.8 mph 19.6 mph N/A   Mostly Cloudy
11:02 AM 78.8 °F - 66.2 °F 65% 30.07 in 10.0 mi SW 13.8 mph - N/A   Mostly Cloudy
11:33 AM 78.8 °F - 66.2 °F 65% 30.07 in 10.0 mi WSW 13.8 mph 18.4 mph N/A   Mostly Cloudy
11:40 AM 78.8 °F - 66.2 °F 65% 30.06 in 10.0 mi WSW 12.7 mph - N/A   Scattered Clouds
11:53 AM 79.0 °F - 64.0 °F 60% 30.05 in 10.0 mi WSW 16.1 mph - N/A   Partly Cloudy
12:53 PM 80.1 °F 81.9 °F 64.9 °F 60% 30.02 in 10.0 mi WSW 16.1 mph - N/A   Clear
1:20 PM 78.8 °F - 66.2 °F 65% 30.02 in 10.0 mi WSW 19.6 mph 24.2 mph N/A   Scattered Clouds
1:40 PM 77.0 °F - 64.4 °F 65% 30.01 in 10.0 mi West 13.8 mph 19.6 mph N/A   Mostly Cloudy
1:53 PM 77.0 °F - 66.0 °F 69% 30.00 in 10.0 mi West 12.7 mph 18.4 mph N/A   Mostly Cloudy
2:21 PM 75.2 °F - 64.4 °F 69% 30.00 in 10.0 mi NW 12.7 mph - N/A   Mostly Cloudy
2:33 PM 75.2 °F - 64.4 °F 69% 30.01 in 10.0 mi NW 13.8 mph 20.7 mph N/A   Mostly Cloudy
2:53 PM 73.9 °F - 64.0 °F 71% 30.01 in 10.0 mi WNW 15.0 mph 23.0 mph N/A   Mostly Cloudy
3:53 PM 68.0 °F - 61.0 °F 78% 30.04 in 10.0 mi WNW 10.4 mph 23.0 mph N/A   Overcast
4:53 PM 64.0 °F - 57.0 °F 78% 30.07 in 10.0 mi NW 11.5 mph 23.0 mph 0.00 in   Overcast
5:53 PM 63.0 °F - 54.0 °F 72% 30.09 in 10.0 mi NNW 10.4 mph 26.5 mph N/A   Overcast
6:04 PM 62.6 °F - 53.6 °F 72% 30.09 in 10.0 mi NNW 10.4 mph 19.6 mph N/A   Overcast
6:13 PM 62.6 °F - 53.6 °F 72% 30.10 in 10.0 mi NW 13.8 mph 21.9 mph N/A   Overcast
6:20 PM 62.6 °F - 53.6 °F 72% 30.10 in 10.0 mi NW 11.5 mph 23.0 mph N/A   Overcast
6:53 PM 63.0 °F - 52.0 °F 67% 30.11 in 10.0 mi NW 12.7 mph 24.2 mph N/A   Overcast
7:53 PM 63.0 °F - 51.1 °F 65% 30.12 in 10.0 mi NW 9.2 mph 17.3 mph N/A   Mostly Cloudy
8:53 PM 62.1 °F - 48.0 °F 60% 30.13 in 10.0 mi NW 11.5 mph 18.4 mph N/A   Overcast
9:53 PM 62.1 °F - 48.0 °F 60% 30.13 in 10.0 mi NNW 8.1 mph - N/A   Overcast
10:53 PM 61.0 °F - 48.9 °F 64% 30.14 in 10.0 mi NNW 9.2 mph 17.3 mph N/A   Overcast
11:53 PM 60.1 °F - 48.0 °F 64% 30.12 in 10.0 mi NNW 11.5 mph - N/A   Clear